Home   Weather   Leuven   Past weeks

Flag for Belgium Past Weather in Leuven, Belgium — Yesterday and Last 2 Weeks

Now
46 °F

Sunny.


Feels Like: 41 °F
Forecast: 47 / 57 °F
Wind: 12 mph from Southeast

Location: Brussels National Airport

Current Time: Apr 30, 2017 at 8:54:37 am

Latest Report: Apr 30, 2017 at 8:20 am


Visibility: 10 mi

Pressure: 29.83 "Hg

Humidity: 62%

Dew Point: 34 °F

Location of LeuvenLocation

Past Weather in Leuven — Graph

°F

Leuven Temperature Yesterday

Maximum temperature yesterday: 55 °F (at 1:50 pm)
Minimum temperature yesterday: 36 °F (at 4:50 am)
Average temperature yesterday: 47 °F

High & Low Weather Summary for the Past Weeks

 TemperatureHumidityPressure
High59 °F (Apr 24, 3:50 pm)94% (Apr 15, 8:20 am)30.66 "Hg (Apr 15, 8:20 am)
Low27 °F (Apr 20, 5:50 am)30% (Apr 20, 6:20 pm)29.77 "Hg (Apr 24, 11:50 pm)
Average45 °F69%30.17 "Hg
* Reported Apr 15 7:20 am — Apr 30 7:20 am, Leuven, Weather by CustomWeather, © 2017

Note: Actual official high and low records may vary slightly from our data, if they occured in-between our weather recording intervals... More about our weather records

Advertising

Leuven Weather History for the Previous 24 Hours

Scroll right to see more
 ConditionsComfort  
Time TempWeatherWind HumidityBarometerVisibility
7:20 am
Sun, Apr 30
41 °FSunny.7 mph70%29.86 "Hg10 mi
6:50 am41 °FSunny.7 mph70%29.86 "Hg10 mi
6:20 am39 °FSunny.7 mph75%29.86 "Hg10 mi
5:50 am39 °FClear.6 mph75%29.86 "Hg10 mi
5:20 am39 °FClear.6 mph75%29.89 "Hg10 mi
4:50 am41 °FClear.6 mph70%29.89 "Hg10 mi
4:20 am41 °FClear.9 mph70%29.89 "Hg10 mi
3:50 am41 °FClear.7 mph70%29.92 "Hg10 mi
3:20 am41 °FClear.6 mph70%29.92 "Hg10 mi
2:50 am41 °FClear.5 mph76%29.92 "Hg10 mi
2:20 am43 °FClear.5 mph71%29.92 "Hg10 mi
1:50 am43 °FClear.5 mph71%29.95 "Hg10 mi
1:20 am45 °FClear.6 mph61%29.95 "Hg10 mi
12:50 am45 °FClear.6 mph66%29.95 "Hg10 mi
12:20 am45 °FClear.6 mph66%29.95 "Hg10 mi
11:50 pm
Sat, Apr 29
45 °FClear.6 mph66%29.95 "Hg10 mi
11:20 pm45 °FClear.5 mph66%29.98 "Hg10 mi
10:50 pm45 °FClear.5 mph66%29.98 "Hg10 mi
10:20 pm46 °FClear.6 mph66%29.98 "Hg10 mi
9:20 pm48 °FClear.6 mph58%29.98 "Hg10 mi
8:50 pm48 °FSunny.5 mph62%29.98 "Hg10 mi
8:20 pm50 °FSunny.6 mph58%29.98 "Hg10 mi
7:50 pm54 °FPassing clouds.7 mph47%29.98 "HgN/A
7:20 pm54 °FPassing clouds.8 mph47%30.01 "HgN/A
6:50 pm55 °FSunny.9 mph51%30.01 "Hg10 mi
6:20 pm55 °FPassing clouds.7 mph47%30.01 "HgN/A
5:50 pm55 °FPassing clouds.7 mph47%30.04 "HgN/A
5:20 pm55 °FPassing clouds.6 mph55%30.04 "HgN/A
4:50 pm55 °FPassing clouds.7 mph51%30.04 "HgN/A
4:20 pm55 °FPassing clouds.3 mph51%30.04 "HgN/A
3:50 pm54 °FPassing clouds.5 mph51%30.04 "HgN/A
3:20 pm54 °FSunny.3 mph51%30.07 "Hg10 mi
2:20 pm54 °FPassing clouds.7 mph51%30.07 "HgN/A
1:50 pm55 °FPassing clouds.7 mph47%30.07 "HgN/A
1:20 pm54 °FSunny.1 mph47%30.07 "Hg10 mi
12:50 pm54 °FPassing clouds.3 mph44%30.07 "HgN/A
12:20 pm54 °FScattered clouds.5 mph51%30.07 "HgN/A
11:50 am54 °FScattered clouds.3 mph47%30.07 "HgN/A
11:20 am54 °FScattered clouds.3 mph47%30.07 "HgN/A
10:50 am52 °FPassing clouds.1 mph54%30.07 "HgN/A
10:20 am52 °FPassing clouds.No wind62%30.07 "HgN/A
9:20 am50 °FPassing clouds.3 mph62%30.07 "HgN/A
8:50 am48 °FPassing clouds.3 mph71%30.07 "HgN/A
8:20 am45 °FPassing clouds.3 mph81%30.07 "HgN/A
Weather by CustomWeather, © 2017

See weather overviewHow to use our weather pages